Lexington Weather

Lexington, Massachusetts, USA

54°F
5/18/2024 12:46am 
  • Lexington Conditions: Clear
  • Temperature: 54.0°F / 12.2°CColder 0.9°F than last hour.
  • Dew Point: 50.2°F 
  • Relative Humidity: 87%Increased 3.0% since last hour.
  • Wind: Calm, 10-min avg: Calm, gust: 2 mph
  • Barometer: 29.95 in Steady
  • Visibility: 10 miles
  • Rain Today: 0.00 in
  •   

Regional Weather Roundup
for Boston, MA

        
000
ASUS41 KBOX 141010
RWRBOX

REGIONAL WEATHER ROUNDUP
NATIONAL WEATHER SERVICE BOSTON/NORTON MA
600 AM EDT TUE MAY 14 2024

NOTE:  "FAIR" INDICATES FEW OR NO CLOUDS BELOW 12,000 FEET WITH NO 
SIGNIFICANT WEATHER AND/OR OBSTRUCTIONS TO VISIBILITY.

MAZALL-141100-
EASTERN MASSACHUSETTS
  
CITY           SKY/WX    TMP DP  RH WIND       PRES   REMARKS
BOSTON         MOCLDY    53  49  86 S6        30.01F                  
BEVERLY        PTCLDY    52  49  89 SE6       30.01S                  
LAWRENCE       MOCLDY    53  49  86 S3        30.02S                  
BEDFORD        MOCLDY    51  48  89 S5        29.99F                  
NORWOOD        MOCLDY    53  49  86 S7        30.01F                  
MARSHFIELD     CLOUDY    52  46  82 SW6       30.02F                  
PLYMOUTH       CLOUDY    51  46  83 VRB3      30.03F                  
TAUNTON        PTCLDY    52  47  83 CALM      30.03F                  
NEW BEDFORD    MOCLDY    51  48  89 S6        30.03F                  
$$

MAZALL-141100-
CAPE COD AND THE ISLANDS
  
CITY           SKY/WX    TMP DP  RH WIND       PRES   REMARKS
FALMOUTH       NOT AVBL                                               
HYANNIS        CLEAR     52  44  74 S7        30.04F                  
CHATHAM        CLEAR     52  45  77 SW6       30.07S                  
PROVINCETOWN   CLEAR     52  49  89 S10       30.06S                  
NANTUCKET      NOT AVBL                                               
MARTHAS VNYRD  CLOUDY    52  47  83 S7        30.06F                  
$$
 
MAZALL-141100-
CENTRAL AND WESTERN MASSACHUSETTS
  
CITY           SKY/WX    TMP DP  RH WIND       PRES   REMARKS
WORCESTER      CLOUDY    51  48  89 SW8       29.99F                  
FITCHBURG      CLOUDY    55  49  80 SE5       29.99F                  
ORANGE         PTCLDY    53  49  86 S7        29.99F                  
SPRINGFIELD    CLOUDY    53  49  86 S6        29.96F                  
WESTFIELD      CLOUDY    53  51  93 S5        29.99S                  
NORTH ADAMS    NOT AVBL                                               
PITTSFIELD     FOG       47  46  97 CALM      29.95F VSB 3/4          
$$
 
RIZALL-141100-
RHODE ISLAND
  
CITY           SKY/WX    TMP DP  RH WIND       PRES   REMARKS
PROVIDENCE     MOCLDY    51  49  92 CALM      30.04S                  
NEWPORT        MOCLDY    51  46  83 S7        30.03F                  
BLOCK ISLAND   CLOUDY    50  46  86 S13       30.05F                  
SMITHFIELD     CLOUDY    50  50 100 CALM      30.02F                  
WESTERLY       MOCLDY    52  47  83 S5        30.04S                  
$$
 
CTZALL-141100-
CONNECTICUT
  
CITY           SKY/WX    TMP DP  RH WIND       PRES   REMARKS
BRADLEY INTL   CLOUDY    55  50  83 S7        30.00S                  
HARTFORD       PTCLDY    53  50  89 S6        30.00S                  
PLAINVILLE     CLOUDY    53  53  99 S6        30.00S                  
BRIDGEPORT     CLEAR     53  51  93 CALM      30.01R                  
DANBURY        MOCLDY    50  47  89 CALM      30.01S                  
GROTON         CLEAR     53  50  89 SE6       30.02F                  
NEW HAVEN      CLEAR     55  52  89 S5        30.01S                  
CHESTER        CLEAR     50  50 100 S3        30.02S                  
MERIDEN        MOCLDY    51  48  89 CALM      30.01S                  
WILLIMANTIC    CLEAR     50  48  93 CALM      30.02F                  
OXFORD         FOG       50  50 100 S7        30.01S VSB 1/4          
$$

MEZ002-015-021-024-NHZ003-005-008-011-012-014-VTZ005-008-141100-
NORTHERN NEW ENGLAND
  
CITY           SKY/WX    TMP DP  RH WIND       PRES   REMARKS
PORTLAND ME    CLOUDY    52  50  93 SW6       30.02R                  
BANGOR ME      MOCLDY    45  41  86 CALM      30.02S                  
CONCORD NH     LGT RAIN  54  51  90 CALM      29.99S                  
MANCHESTER NH  CLOUDY    56  50  80 S7        29.98S                  
NASHUA NH      CLOUDY    55  55 100 SE3       30.00F                  
PORTSMOUTH NH  CLOUDY    53  50  89 SE5       30.00S                  
JAFFREY NH     CLOUDY    54  49  83 S3        29.99F                  
KEENE NH       MOCLDY    53  50  89 S5        29.98F                  
BURLINGTON VT  MOCLDY    58  53  84 S8        29.87S                  
MT. WASHINGTON LGT RAIN  41  41 100 W31         N/A  VSB 0   WCI  30  
$$

NYZ052-076-141100-
EASTERN NEW YORK
  
CITY           SKY/WX    TMP DP  RH WIND       PRES   REMARKS
ALBANY         MOCLDY    58  50  75 S9        29.93F                  
NEW YORK CITY  MOCLDY    55  48  77 S6        29.99S                  
$$
 
ANZALL-141100-
MARINE OBSERVATIONS
  
STATION/POSITION TIME  TEMP    WIND        PRES    VSBY  WAVE
                       AIR SEA DIR/SP/G                  HT/PER
                 (UTC) (F)     (DEG/KT/KT) (MB)    (MI)  (FT/S)
BOSTON BUOY      0950   51 51  170/  6/  8 1017.0S         2/10
BUZZARDS BAY     0900   51     200/ 12/ 13 1018.2F
NANTUCKET SOUND  0950   53 54  190/ 12/ 14 1017.2F         1/ 3
MASS BAY-STELLWA 0804   52 51  180/ 12/ 14 1016.6F  1 7/8  3/ 8
ISLE OF SHOALS   0900   52     200/ 14/ 16 1015.9R
S OF BLOCK IS    0956      50                N/A           2/ 8
$$

......................KEY.........................
  SKY/WX - SKY CONDITION/PRESENT WEATHER
  TMP    - TEMPERATURE IN FAHRENHEIT
  DWPT   - DEWPOINT IN FAHRENHEIT
  RH     - RELATIVE HUMIDITY IN PERCENT
  WIND   - DIRECTION AND SPEED IN MPH
  PRES   - MEAN SEA LEVEL PRESSURE IN INCHES OF HG
  WCI    - WIND CHILL INDEX
  VSB    - VISIBILITY IN MILES
  HX     - HEAT INDEX
  TC     - TEMPERATURE IN CELSIUS
  VRB    - VARIABLE WIND DIRECTION
  N/A    - NOT AVAILABLE
  
      

Other recent Regional Weather Roundups

Sat May 18, 12:10am EDT

Fri May 17, 11:10pm EDT

Fri May 17, 10:10pm EDT

Fri May 17, 9:10pm EDT

Fri May 17, 8:10pm EDT

Fri May 17, 7:10pm EDT

Fri May 17, 6:10pm EDT

Fri May 17, 5:10pm EDT

Fri May 17, 4:10pm EDT

Fri May 17, 3:10pm EDT

Fri May 17, 2:10pm EDT

Fri May 17, 1:10pm EDT

Fri May 17, 12:10pm EDT

Fri May 17, 11:10am EDT

Fri May 17, 10:10am EDT

Fri May 17, 9:10am EDT

Fri May 17, 8:10am EDT

Fri May 17, 7:10am EDT

Fri May 17, 6:10am EDT

Fri May 17, 5:10am EDT

Fri May 17, 4:10am EDT

Fri May 17, 3:10am EDT

Fri May 17, 2:10am EDT

Fri May 17, 1:10am EDT

Fri May 17, 12:10am EDT

Thu May 16, 11:10pm EDT

Thu May 16, 10:10pm EDT

Thu May 16, 9:10pm EDT

Thu May 16, 8:10pm EDT

Thu May 16, 7:10pm EDT

Thu May 16, 6:10pm EDT

Thu May 16, 5:10pm EDT

Thu May 16, 4:10pm EDT

Thu May 16, 3:10pm EDT

Thu May 16, 2:10pm EDT

Thu May 16, 1:10pm EDT

Thu May 16, 12:10pm EDT

Thu May 16, 11:10am EDT

Thu May 16, 10:10am EDT

Thu May 16, 9:10am EDT

Thu May 16, 8:10am EDT

Thu May 16, 7:10am EDT

Thu May 16, 6:10am EDT

Thu May 16, 5:10am EDT

Thu May 16, 4:10am EDT

Thu May 16, 3:10am EDT

Thu May 16, 2:10am EDT

Thu May 16, 1:10am EDT

Thu May 16, 12:10am EDT

Wed May 15, 11:10pm EDT

Wed May 15, 10:10pm EDT

Wed May 15, 9:10pm EDT

Wed May 15, 8:10pm EDT

Wed May 15, 7:10pm EDT

Wed May 15, 6:10pm EDT

Wed May 15, 5:10pm EDT

Wed May 15, 4:10pm EDT

Wed May 15, 3:10pm EDT

Wed May 15, 2:10pm EDT

Wed May 15, 1:10pm EDT

Wed May 15, 12:10pm EDT

Wed May 15, 11:10am EDT

Wed May 15, 10:10am EDT

Wed May 15, 9:10am EDT

Wed May 15, 8:10am EDT

Wed May 15, 7:10am EDT

Wed May 15, 6:10am EDT

Wed May 15, 5:10am EDT

Wed May 15, 4:10am EDT

Wed May 15, 3:10am EDT

Wed May 15, 2:10am EDT

Wed May 15, 1:10am EDT

Wed May 15, 12:10am EDT

Tue May 14, 11:10pm EDT

Tue May 14, 10:10pm EDT

Tue May 14, 9:10pm EDT

Tue May 14, 8:10pm EDT

Tue May 14, 7:10pm EDT

Tue May 14, 6:10pm EDT

Tue May 14, 5:10pm EDT

Tue May 14, 4:10pm EDT

Tue May 14, 3:10pm EDT

Tue May 14, 2:10pm EDT

Tue May 14, 1:10pm EDT

Tue May 14, 12:10pm EDT

Tue May 14, 11:10am EDT

Tue May 14, 10:10am EDT

Tue May 14, 9:10am EDT

Tue May 14, 8:10am EDT

Tue May 14, 7:10am EDT

Tue May 14, 5:10am EDT

Tue May 14, 4:10am EDT

Tue May 14, 3:10am EDT

Tue May 14, 2:10am EDT

Tue May 14, 1:10am EDT

Tue May 14, 12:10am EDT

Mon May 13, 11:10pm EDT

Mon May 13, 10:10pm EDT

Mon May 13, 9:10pm EDT

Mon May 13, 8:10pm EDT

Mon May 13, 7:10pm EDT

Mon May 13, 6:10pm EDT

Mon May 13, 5:10pm EDT

Mon May 13, 4:10pm EDT

Mon May 13, 3:10pm EDT

Mon May 13, 2:10pm EDT

Mon May 13, 1:10pm EDT

Mon May 13, 12:10pm EDT

Mon May 13, 11:10am EDT

Mon May 13, 10:10am EDT

Mon May 13, 9:10am EDT

Mon May 13, 8:10am EDT

Mon May 13, 7:10am EDT

Mon May 13, 6:10am EDT

Mon May 13, 5:10am EDT

Mon May 13, 4:10am EDT

Mon May 13, 3:10am EDT

Mon May 13, 2:10am EDT

Mon May 13, 1:10am EDT

Mon May 13, 12:10am EDT

Sun May 12, 11:10pm EDT

Sun May 12, 10:10pm EDT

Sun May 12, 9:10pm EDT

Sun May 12, 8:10pm EDT

Sun May 12, 7:10pm EDT

Sun May 12, 6:10pm EDT

Sun May 12, 5:10pm EDT

Sun May 12, 4:10pm EDT

Sun May 12, 3:10pm EDT

Sun May 12, 2:10pm EDT

Sun May 12, 1:10pm EDT

Sun May 12, 12:10pm EDT

Sun May 12, 11:10am EDT

Sun May 12, 10:10am EDT

Sun May 12, 9:10am EDT

Sun May 12, 8:10am EDT

Sun May 12, 7:10am EDT

Sun May 12, 6:10am EDT

Sun May 12, 5:10am EDT

Sun May 12, 4:10am EDT

Sun May 12, 3:10am EDT

Sun May 12, 2:10am EDT

Sun May 12, 1:10am EDT

Sun May 12, 12:10am EDT

Sat May 11, 11:10pm EDT

Sat May 11, 10:10pm EDT

Sat May 11, 9:10pm EDT

Sat May 11, 8:10pm EDT

Sat May 11, 7:10pm EDT

Sat May 11, 6:10pm EDT

Sat May 11, 5:10pm EDT

Sat May 11, 4:10pm EDT

Sat May 11, 3:10pm EDT

Sat May 11, 2:10pm EDT

Sat May 11, 1:10pm EDT

Sat May 11, 12:10pm EDT

Sat May 11, 11:10am EDT

Sat May 11, 10:10am EDT

Sat May 11, 9:10am EDT

Sat May 11, 8:10am EDT

Sat May 11, 7:10am EDT

Sat May 11, 6:10am EDT

Sat May 11, 5:10am EDT

Sat May 11, 4:10am EDT

Sat May 11, 3:10am EDT

Sat May 11, 2:10am EDT

Sat May 11, 1:10am EDT